Location: Central Falls
(41.8900°N, 71.3929°W)
Time: 03:09:58
(UTC+00:00)

Tiros 1 - Pass Details

Date: 09 December 2023
Orbit: 625 x 658 km, 48.4° (Epoch: 01 March)

Event Time Altitude Azimuth Distance (km) Brightness Sun altitude
Rises 12:46:37 0° 297° (WNW) 2,989 9.9 6.1°
Reaches altitude 10° 12:48:58 10° 297° (WNW) 2,075 9.2 6.5°
Maximum altitude 12:53:46 85° 210° (SSW) 663 7.4 7.2°
Drops below altitude 10° 12:58:32 10° 122° (ESE) 2,056 12.3 7.8°
Sets 13:00:51 0° 121° (ESE) 2,960 12.7 8.2°
